Faleolo, Samoa

1:50 PM +13 on September 19, 2019 (GMT +1300)
Faleolo International

Weather History for NSFA - August, 2019

Change the Weather History Date:

Monday, August 19, 2019

  Actual Average Record
Temperature  
Mean Temperature 81 °F -  
Max Temperature 89 °F 84 °F 89 °F (2017)
Min Temperature 73 °F 71 °F 68 °F (2012)
Cooling Degree Days 16    
Growing Degree Days 31 (Base 50)    
Moisture  
Dew Point 75 °F    
Average Humidity 82    
Maximum Humidity 100    
Minimum Humidity 64    
Precipitation  
Precipitation 0.00 in - - ()
Sea Level Pressure  
Sea Level Pressure 29.86 in    
Wind  
Wind Speed 6 mph ()    
Max Wind Speed 16 mph    
Max Gust Speed -    
Visibility 6.9 miles    
Events      
Averages and records for this station are not official NWS values.
T = Trace of Precipitation, MM = Missing Value Source: Averaged Metar Reports

Daily Weather History Graph

Daily Weather History Graph

Search for Another Location

Airport or City:

Astronomy

Aug. 20, 2019 Rise Set
Actual Time 6:40 AM +13 6:22 PM +13
Civil Twilight 6:19 AM +13 6:44 PM +13
Nautical Twilight 5:53 AM +13 7:09 PM +13
Astronomical Twilight 5:28 AM +13 7:34 PM +13
Moon 9:13 PM +13 8:58 AM +13
Length of Visible Light 12h 25m
Length of Day
11h 41m
Waning Gibbous, 90% of the Moon is Illuminated
Aug 19
Waning Gibbous
Aug 24
Last Quarter
Aug 30
New
Sep 6
First Quarter
Sep 14
Full

Hourly Weather History & Observations

Time (+13) Temp. Heat Index Dew Point Humidity Pressure Visibility Wind Dir Wind Speed Gust Speed Precip Events Conditions
12:00 AM 77.0 °F - 73.4 °F 89% 29.92 in 6.2 mi East 3.5 mph - N/A   Partly Cloudy
1:00 AM 76 °F - 72 °F 86% 29.92 in 12 mi ESE 3.5 mph - -   Partly Cloudy
1:00 AM 75.2 °F - 73.4 °F 94% 29.92 in 6.2 mi ESE 3.5 mph - N/A   Partly Cloudy
2:00 AM 75.2 °F - 71.6 °F 89% 29.89 in 6.2 mi SSE 3.5 mph - N/A   Partly Cloudy
3:00 AM 73.4 °F - 71.6 °F 94% 29.89 in 6.2 mi SSE 3.5 mph - N/A   Partly Cloudy
4:00 AM 73.4 °F - 73.4 °F 100% 29.86 in 6.2 mi SSE 3.5 mph - N/A   Partly Cloudy
5:00 AM 73.4 °F - 71.6 °F 94% 29.86 in 6.2 mi South 3.5 mph - N/A   Partly Cloudy
7:00 AM 75.2 °F - 71.6 °F 89% 29.89 in 6.2 mi South 3.5 mph - N/A   Partly Cloudy
8:00 AM 78.8 °F - 73.4 °F 83% 29.89 in 6.2 mi Calm Calm - N/A   Partly Cloudy
9:00 AM 82.4 °F 88.2 °F 73.4 °F 74% 29.89 in 6.2 mi ENE 5.8 mph - N/A   Partly Cloudy
11:00 AM 87.8 °F 99.7 °F 77.0 °F 70% 29.89 in 6.2 mi North 12.7 mph - N/A   Scattered Clouds
12:00 PM 89.6 °F 104.7 °F 78.8 °F 70% 29.86 in 6.2 mi NNE 15.0 mph - N/A   Scattered Clouds
1:00 PM 89 °F - 78 °F 64% 29.86 in 12 mi NNE 16.1 mph - -   Mostly Cloudy
1:00 PM 89.6 °F 104.7 °F 78.8 °F 70% 29.86 in 6.2 mi NNE 16.1 mph - N/A   Mostly Cloudy
2:00 PM 89.6 °F 102.2 °F 77.0 °F 66% 29.83 in 6.2 mi NNE 13.8 mph - N/A   Mostly Cloudy
3:00 PM 87.8 °F 99.7 °F 77.0 °F 70% 29.80 in 6.2 mi NNE 9.2 mph - N/A   Scattered Clouds
4:00 PM 87.8 °F 99.7 °F 77.0 °F 70% 29.80 in 6.2 mi NNE 11.5 mph - N/A   Scattered Clouds
5:00 PM 86.0 °F 95.1 °F 75.2 °F 70% 29.80 in 6.2 mi NNE 13.8 mph - N/A   Scattered Clouds
6:00 PM 82.4 °F 90.9 °F 77.0 °F 84% 29.83 in 6.2 mi NE 9.2 mph - N/A   Partly Cloudy
7:00 PM 81 °F - 76 °F 81% 29.84 in 12 mi ENE 8.1 mph - -   Haze
8:00 PM 78.8 °F - 75.2 °F 89% 29.83 in 6.2 mi East 6.9 mph - N/A   Partly Cloudy
9:00 PM 78.8 °F - 75.2 °F 89% 29.86 in 6.2 mi East 5.8 mph - N/A   Partly Cloudy
10:00 PM 77.0 °F - 73.4 °F 89% 29.86 in 6.2 mi East 6.9 mph - N/A   Partly Cloudy
11:00 PM 77.0 °F - 75.2 °F 94% 29.86 in 6.2 mi East 5.8 mph - N/A   Partly Cloudy